This is the latest recevied weather packets stored in our database for station/object KD9CCP. If no packets are shown the sender has not sent any weather packets the latest 10 day(s).
| Time | Temp. | Humidity | Pressure | Rain* | Wind** | Luminosity | Snow |
|---|---|---|---|---|---|---|---|
| 1777964749 | 3.33° C | 65% | 1004.2 hPa | 0 mm | - | 0 W/m² | - |
| 1777964445 | 3.33° C | 65% | 1004.5 hPa | 0 mm | - | 0 W/m² | - |
| 1777964141 | 3.33° C | 64% | 1004.3 hPa | 0 mm | - | 0 W/m² | - |
| 1777963838 | 3.33° C | 64% | 1004.2 hPa | 0 mm | - | 0 W/m² | - |
| 1777963534 | 3.33° C | 64% | 1004.5 hPa | 0 mm | - | 0 W/m² | - |
| 1777963233 | 3.33° C | 63% | 1004.2 hPa | 0 mm | - | 0 W/m² | - |
| 1777962930 | 3.89° C | 64% | 1004.5 hPa | 0 mm | - | 0 W/m² | - |
| 1777962626 | 3.89° C | 64% | 1004.2 hPa | 0 mm | - | 0 W/m² | - |
| 1777962323 | 3.89° C | 63% | 1004.5 hPa | 0 mm | - | 0 W/m² | - |
| 1777962020 | 3.89° C | 66% | 1004.5 hPa | 0 mm | - | 0 W/m² | - |
| 1777961717 | 3.89° C | 65% | 1004.3 hPa | 0 mm | - | 0 W/m² | - |
| 1777961415 | 3.89° C | 62% | 1004.1 hPa | 0 mm | - | 0 W/m² | - |
| 1777961112 | 3.89° C | 62% | 1004.2 hPa | 0 mm | - | 0 W/m² | - |
| 1777960809 | 3.89° C | 66% | 1004.2 hPa | 0 mm | - | 0 W/m² | - |
| 1777960504 | 3.89° C | 62% | 1004.1 hPa | 0 mm | - | 0 W/m² | - |
| 1777960201 | 3.89° C | 61% | 1004.2 hPa | 0 mm | - | 0 W/m² | - |
| 1777959898 | 4.44° C | 63% | 1004 hPa | 0 mm | - | 0 W/m² | - |
| 1777959596 | 4.44° C | 60% | 1003.8 hPa | 0 mm | - | 0 W/m² | - |
| 1777959293 | 4.44° C | 60% | 1003.9 hPa | 0 mm | - | 0 W/m² | - |
| 1777958990 | 4.44° C | 60% | 1004 hPa | 0 mm | - | 0 W/m² | - |
| 1777958687 | 4.44° C | 59% | 1003.9 hPa | 0 mm | - | 0 W/m² | - |
| 1777958384 | 4.44° C | 58% | 1003.6 hPa | 0 mm | - | 0 W/m² | - |
| 1777958081 | 4.44° C | 60% | 1003.7 hPa | 0 mm | - | 0 W/m² | - |
| 1777957779 | 4.44° C | 58% | 1003.6 hPa | 0 mm | - | 0 W/m² | - |
| 1777957477 | 4.44° C | 57% | 1003.4 hPa | 0 mm | - | 0 W/m² | - |
* Rain latest hour (hover to see other rain measurements)
** Current wind speed in m/s (hover to see current wind gust speed)